Location: Kiltepe
(36.4752°N, 30.0120°E)
Time: 10:50:23
(UTC+00:00)

Atlas Centaur 2 - Pass Details

Date: 03 August 2024
Orbit: 457 x 1271 km, 30.4° (Epoch: 18 September)

Event Time Altitude Azimuth Distance (km) Brightness Sun altitude
Rises 18:12:11 0° 223° (SW) 2,709 5.0 -13.0°
Reaches altitude 10° 18:14:39 10° 208° (SSW) 1,922 4.0 -13.4°
Maximum altitude 18:18:08 22° 156° (SSE) 1,437 2.9 -14.0°
Enters shadow 18:19:06 21° 139° (SE) 1,530 3.0 -14.2°
